This demonstration page uses our WeatherBlox Daily Observations layout. Learn more.

Left ArrowRight Arrow

44.8408, -93.29828

Hourly Observations for July 3, 2016

Temp ( °F °C ) Dew Point ( °F °C ) Humidity (%) Winds ( mph kmh ) Pressure ( in mb ) Visibility ( mi km ) Precip ( " mm )
12:53 am 00:53 Clear 69 20.6 55 12.8 61 61 S 3 6 30.06 1018 10 16 0.00 0.00
1:53 am 01:53 Clear 67 19.4 55 12.8 66 66 SSW 6 9 30.06 1018 10 16 0.00 0.00
2:53 am 02:53 Clear 66 18.9 56 13.3 70 70 SSW 7 11 30.06 1018 10 16 0.00 0.00
3:53 am 03:53 Clear 64 17.8 56 13.3 75 75 SSW 5 7 30.06 1018 10 16 0.00 0.00
4:53 am 04:53 Mostly Clear 64 17.8 56 13.3 75 75 Calm 30.05 1018 10 16 0.00 0.00
5:53 am 05:53 Mostly Sunny 63 17.2 56 13.3 78 78 SSW 3 6 30.06 1018 10 16 0.00 0.00
6:53 am 06:53 Partly Cloudy 63 17.2 57 13.9 81 81 SE 6 9 30.07 1018 10 16 0.00 0.00
7:53 am 07:53 Partly Cloudy 66 18.9 57 13.9 73 73 Calm 30.07 1018 10 16 0.00 0.00
8:53 am 08:53 Partly Cloudy 71 21.7 57 13.9 61 61 Calm 30.07 1018 10 16 0.00 0.00
9:53 am 09:53 Partly Cloudy 72 22.2 56 13.3 57 57 S 3 6 30.07 1018 10 16 0.00 0.00
10:53 am 10:53 Mostly Cloudy 74 23.3 57 13.9 56 56 SE 7 11 30.05 1018 10 16 0.00 0.00
11:53 am 11:53 Mostly Cloudy 76 24.4 55 12.8 48 48 SE 8 13 30.04 1017 10 16 0.00 0.00
12:53 pm 12:53 Partly Cloudy 77 25 51 10.6 40 40 SSE 13 20 30.04 1017 10 16 0.00 0.00
1:53 pm 13:53 Partly Cloudy 78 25.6 48 8.9 35 35 SE 10 17 30.02 1017 10 16 0.00 0.00
2:53 pm 14:53 Mostly Sunny 79 26.1 46 7.8 31 31 SE 10 17 30.01 1016 10 16 0.00 0.00
3:53 pm 15:53 Mostly Sunny 79 26.1 48 8.9 34 34 S 7 11 29.99 1016 10 16 0.00 0.00
4:53 pm 16:53 Mostly Sunny 80 26.7 48 8.9 33 33 S 8 13 29.97 1015 10 16 0.00 0.00
5:53 pm 17:53 Mostly Sunny 79 26.1 49 9.4 35 35 SSE 10 17 29.96 1015 10 16 0.00 0.00
6:53 pm 18:53 Mostly Sunny 78 25.6 50 10 37 37 SE 9 15 29.94 1014 10 16 0.00 0.00
7:53 pm 19:53 Sunny 77 25 51 10.6 40 40 SSE 8 13 29.93 1014 10 16 0.00 0.00
8:53 pm 20:53 Sunny 74 23.3 53 11.7 48 48 SE 8 13 29.91 1013 10 16 0.00 0.00
9:53 pm 21:53 Mostly Clear 72 22.2 54 12.2 53 53 SE 6 9 29.92 1013 10 16 0.00 0.00
10:53 pm 22:53 Mostly Clear 70 21.1 55 12.8 59 59 SSE 8 13 29.94 1014 10 16 0.00 0.00
11:53 pm 23:53 Clear 68 20 55 12.8 63 63 SSE 6 9 29.94 1014 10 16 0.00 0.00

Powered by AerisWeather